Weather in Degtyarka

Russia / Altai Krai     53°20′36″N   79°21′19″E
temp.,
°C
wind,
m/s
gust,
m/s
humid.,
%
clouds,
%
prec.,
mm/h
press.,
hPa
HPBL,
m
13 may, thu
thu1301:00+14wsw6965100 0.1 1016341
04:00+13w3677100 0.5 1014195
07:00+11nnw61086100 0.9 1015581
10:00+11nnw7972100 0.0 1016830
13:00+12nnw7863100 0.0 10161089
16:00+16n684321 0.0 10161830
19:00+17n783569 0.0 10152368
22:00+12n2254100 0.0 101729
14 may, fri
fri1401:00+10n22645 0.0 101816
04:00+8nnw35640 0.0 101976
07:00+8nnw36655 0.0 1020168
10:00+13n67535 0.0 1022740
13:00+17n674450 0.0 10231592
16:00+18n672938 0.0 10231763
19:00+18n6626100 0.0 10241584
22:00+13n333751 0.0 102642
15 may, sat
sat1501:00+11nnw334219 0.0 102626
04:00+10wnw22385 0.0 102610
07:00+11wsw33400 0.0 102648
10:00+17wsw4629100 0.0 1026536
13:00+22wsw562575 0.0 10241043
16:00+24wsw56255 0.0 10221240
19:00+26w573033 0.0 10202208
22:00+20sw4104326 0.0 1019167
16 may, sun
sun1601:00+19sw513505 0.1 1018262
04:00+16wsw5156031 1.1 1017321
07:00+16wsw3965100 1.1 1017197
10:00+21wnw3449100 0.0 1016454
13:00+26wnw5638100 0.0 10161159
16:00+27wnw453462 0.0 10151747
19:00+24nnw574279 0.2 1015574
22:00+21n494828 0.1 1015180
17 may, mon
mon1701:00+18ene366947 0.1 1016116
04:00+16e117988 0.0 101711
07:00+17nnw227591 0.0 101833
10:00+23wnw33505 0.0 1018605
13:00+27wnw44335 0.0 10161534
16:00+29wnw45255 0.0 10152287
19:00+29wnw46265 0.0 10142715
22:00+24sw463697 0.0 101378